Location: Unspecified
(17.6330°N, 0.0000°E)
Time: 04:22:03
(UTC+00:00)

A-11 Canister half - Pass Details

Date: 22 June 2019
Orbit: 1514 x 1685 km, 47.2° (Epoch: 22 July)

Event Time Altitude Azimuth Distance (km) Brightness Sun altitude
Rises 19:53:52 0° 296° (WNW) 4,671 13.3 -16.8°
Reaches altitude 10° 19:57:38 10° 284° (WNW) 3,676 12.1 -17.6°
Maximum altitude 20:04:37 24° 234° (SW) 2,706 10.5 -19.0°
Drops below altitude 10° 20:11:37 10° 183° (S) 3,674 10.7 -20.4°
Enters shadow 20:13:04 - 177° (S) 4,034 10.9 -20.6°
Sets 20:15:27 0° 170° (S) 4,669 - -21.1°
